User: anonymous   Login
Location: Unspecified
(0.0000°N, 0.0000°E)
Time: 19:30:11
(UTC+00:00)
Language:

Vanguard 2 - Orbit

View from above orbital plane
View from above orbital plane
View from above satellite
View from above satellite

Ground track
Ground track

The orbit data is extracted from the following two-line orbital elements,

1    11U 59001A   20223.40497313 -.00000048 +00000-0 -42115-4 0  9998
2    11 032.8685 212.8164 1468327 196.0624 158.8116 11.85685959281388
Epoch (UTC): 10 August 2020 09:43:09
Eccentricity: 0.1468327
inclination: 32.8685°
perigee height: 553 km
apogee height: 2938 km
right ascension of ascending node: 212.8164°
argument of perigee: 196.0624°
revolutions per day: 11.85685959
mean anomaly at epoch: 158.8116°
orbit number at epoch: 28138

The dashed part of the orbit path shows where the satellite is in the earth's shadow,  

DLR